Year,Month,Day,Hour,Minute,Value (Times are PST for windspeed in km/hr)
2008,03,03,00,00,1.00
2008,03,03,00,01,1.40
2008,03,03,00,02,2.00
2008,03,03,00,03,3.10
2008,03,03,00,04,2.10
2008,03,03,00,05,3.20
2008,03,03,00,06,1.40
2008,03,03,00,07,0.10
2008,03,03,00,08,0.40
2008,03,03,00,09,1.10
2008,03,03,00,10,0.60
2008,03,03,00,11,0.60
2008,03,03,00,12,0.90
2008,03,03,00,13,1.80
2008,03,03,00,14,1.50
2008,03,03,00,15,2.10
2008,03,03,00,16,2.10
2008,03,03,00,17,1.00
2008,03,03,00,18,1.90
2008,03,03,00,19,0.30
2008,03,03,00,20,1.00
2008,03,03,00,21,1.60
2008,03,03,00,22,1.60
2008,03,03,00,23,2.00
2008,03,03,00,24,2.70
2008,03,03,00,25,1.30
2008,03,03,00,26,2.20
2008,03,03,00,27,0.70
2008,03,03,00,28,0.30
2008,03,03,00,29,0.50
2008,03,03,00,30,0.40
2008,03,03,00,31,0.40
2008,03,03,00,32,0.40
2008,03,03,00,33,0.00
2008,03,03,00,34,0.00
2008,03,03,00,35,0.20
2008,03,03,00,36,0.20
2008,03,03,00,37,2.10
2008,03,03,00,38,0.30
2008,03,03,00,39,0.30
2008,03,03,00,40,0.80
2008,03,03,00,41,0.90
2008,03,03,00,42,0.80
2008,03,03,00,43,0.10
2008,03,03,00,44,0.40
2008,03,03,00,45,1.90
2008,03,03,00,46,3.50
2008,03,03,00,47,1.10
2008,03,03,00,48,0.30
2008,03,03,00,49,0.80
2008,03,03,00,50,0.80
2008,03,03,00,51,1.00
2008,03,03,00,52,1.40
2008,03,03,00,53,1.90
2008,03,03,00,54,1.40
2008,03,03,00,55,1.40
2008,03,03,00,56,0.60
2008,03,03,00,57,0.00
2008,03,03,00,58,0.00
2008,03,03,00,59,0.00
2008,03,03,01,00,0.10
2008,03,03,01,01,1.10
2008,03,03,01,02,0.10
2008,03,03,01,03,0.80
2008,03,03,01,04,1.40
2008,03,03,01,05,0.50
2008,03,03,01,06,0.30
2008,03,03,01,07,1.50
2008,03,03,01,08,0.10
2008,03,03,01,09,0.10
2008,03,03,01,10,0.10
2008,03,03,01,11,0.00
2008,03,03,01,12,0.00
2008,03,03,01,13,0.10
2008,03,03,01,14,0.00
2008,03,03,01,15,0.00
2008,03,03,01,16,1.10
2008,03,03,01,17,1.60
2008,03,03,01,18,0.50
2008,03,03,01,19,0.40
2008,03,03,01,20,0.10
2008,03,03,01,21,0.30
2008,03,03,01,22,0.80
2008,03,03,01,23,0.40
2008,03,03,01,24,0.20
2008,03,03,01,25,0.00
2008,03,03,01,26,0.00
2008,03,03,01,27,1.40
2008,03,03,01,28,1.60
2008,03,03,01,29,1.10
2008,03,03,01,30,1.30
2008,03,03,01,31,1.00
2008,03,03,01,32,0.50
2008,03,03,01,33,0.70
2008,03,03,01,34,0.00
2008,03,03,01,35,0.40
2008,03,03,01,36,0.00
2008,03,03,01,37,0.20
2008,03,03,01,38,0.40
2008,03,03,01,39,0.70
2008,03,03,01,40,0.80
2008,03,03,01,41,2.40
2008,03,03,01,42,1.60
2008,03,03,01,43,0.90
2008,03,03,01,44,2.20
2008,03,03,01,45,2.30
2008,03,03,01,46,2.80
2008,03,03,01,47,2.60
2008,03,03,01,48,0.80
2008,03,03,01,49,0.00
2008,03,03,01,50,0.80
2008,03,03,01,51,2.30
2008,03,03,01,52,2.20
2008,03,03,01,53,1.90
2008,03,03,01,54,4.50
2008,03,03,01,55,2.80
2008,03,03,01,56,3.10
2008,03,03,01,57,1.80
2008,03,03,01,58,2.50
2008,03,03,01,59,1.30
2008,03,03,02,00,0.80
2008,03,03,02,01,1.00
2008,03,03,02,02,1.30
2008,03,03,02,03,2.70
2008,03,03,02,04,2.50
2008,03,03,02,05,1.20
2008,03,03,02,06,3.40
2008,03,03,02,07,3.70
2008,03,03,02,08,3.30
2008,03,03,02,09,2.70
2008,03,03,02,10,2.20
2008,03,03,02,11,3.40
2008,03,03,02,12,2.70
2008,03,03,02,13,3.60
2008,03,03,02,14,0.80
2008,03,03,02,15,2.10
2008,03,03,02,16,0.10
2008,03,03,02,17,1.70
2008,03,03,02,18,1.70
2008,03,03,02,19,2.60
2008,03,03,02,20,1.20
2008,03,03,02,21,1.30
2008,03,03,02,22,2.10
2008,03,03,02,23,2.70
2008,03,03,02,24,2.80
2008,03,03,02,25,3.00
2008,03,03,02,26,2.90
2008,03,03,02,27,3.00
2008,03,03,02,28,1.90
2008,03,03,02,29,4.10
2008,03,03,02,30,1.60
2008,03,03,02,31,0.30
2008,03,03,02,32,1.20
2008,03,03,02,33,1.40
2008,03,03,02,34,0.70
2008,03,03,02,35,2.70
2008,03,03,02,36,1.80
2008,03,03,02,37,3.70
2008,03,03,02,38,3.20
2008,03,03,02,39,1.60
2008,03,03,02,40,0.20
2008,03,03,02,41,2.00
2008,03,03,02,42,2.00
2008,03,03,02,43,2.80
2008,03,03,02,44,0.60
2008,03,03,02,45,1.40
2008,03,03,02,46,2.90
2008,03,03,02,47,2.30
2008,03,03,02,48,2.70
2008,03,03,02,49,0.70
2008,03,03,02,50,2.00
2008,03,03,02,51,2.10
2008,03,03,02,52,1.50
2008,03,03,02,53,4.50
2008,03,03,02,54,2.80
2008,03,03,02,55,0.30
2008,03,03,02,56,3.70
2008,03,03,02,57,1.70
2008,03,03,02,58,0.60
2008,03,03,02,59,1.50
2008,03,03,03,00,2.50
2008,03,03,03,01,1.10
2008,03,03,03,02,1.70
2008,03,03,03,03,3.30
2008,03,03,03,04,3.20
2008,03,03,03,05,1.70
2008,03,03,03,06,1.60
2008,03,03,03,07,0.10
2008,03,03,03,08,0.10
2008,03,03,03,09,0.00
2008,03,03,03,10,0.00
2008,03,03,03,11,0.00
2008,03,03,03,12,0.00
2008,03,03,03,13,0.10
2008,03,03,03,14,0.00
2008,03,03,03,15,0.00
2008,03,03,03,16,1.80
2008,03,03,03,17,1.90
2008,03,03,03,18,1.40
2008,03,03,03,19,2.00
2008,03,03,03,20,0.70
2008,03,03,03,21,0.00
2008,03,03,03,22,0.40
2008,03,03,03,23,1.00
2008,03,03,03,24,0.20
2008,03,03,03,25,0.20
2008,03,03,03,26,0.10
2008,03,03,03,27,0.40
2008,03,03,03,28,0.10
2008,03,03,03,29,0.20
2008,03,03,03,30,0.30
2008,03,03,03,31,0.30
2008,03,03,03,32,1.40
2008,03,03,03,33,0.60
2008,03,03,03,34,1.70
2008,03,03,03,35,0.30
2008,03,03,03,36,0.90
2008,03,03,03,37,0.10
2008,03,03,03,38,0.10
2008,03,03,03,39,0.00
2008,03,03,03,40,0.10
2008,03,03,03,41,0.00
2008,03,03,03,42,0.00
2008,03,03,03,43,0.40
2008,03,03,03,44,0.50
2008,03,03,03,45,2.10
2008,03,03,03,46,1.80
2008,03,03,03,47,0.20
2008,03,03,03,48,0.00
2008,03,03,03,49,0.00
2008,03,03,03,50,0.00
2008,03,03,03,51,0.00
2008,03,03,03,52,1.40
2008,03,03,03,53,1.00
2008,03,03,03,54,0.40
2008,03,03,03,55,1.00
2008,03,03,03,56,0.00
2008,03,03,03,57,0.70
2008,03,03,03,58,4.50
2008,03,03,03,59,5.30
2008,03,03,04,00,2.50
2008,03,03,04,01,1.70
2008,03,03,04,02,5.60
2008,03,03,04,03,5.50
2008,03,03,04,04,3.00
2008,03,03,04,05,0.60
2008,03,03,04,06,1.70
2008,03,03,04,07,1.00
2008,03,03,04,08,1.20
2008,03,03,04,09,2.30
2008,03,03,04,10,0.70
2008,03,03,04,11,1.70
2008,03,03,04,12,0.90
2008,03,03,04,13,0.00
2008,03,03,04,14,0.00
2008,03,03,04,15,0.20
2008,03,03,04,16,0.80
2008,03,03,04,17,3.00
2008,03,03,04,18,1.90
2008,03,03,04,19,1.00
2008,03,03,04,20,4.90
2008,03,03,04,21,1.30
2008,03,03,04,22,3.50
2008,03,03,04,23,4.20
2008,03,03,04,24,2.60
2008,03,03,04,25,0.70
2008,03,03,04,26,2.00
2008,03,03,04,27,0.70
2008,03,03,04,28,0.00
2008,03,03,04,29,1.00
2008,03,03,04,30,0.40
2008,03,03,04,31,2.10
2008,03,03,04,32,1.30
2008,03,03,04,33,1.10
2008,03,03,04,34,1.10
2008,03,03,04,35,0.50
2008,03,03,04,36,0.20
2008,03,03,04,37,0.00
2008,03,03,04,38,0.00
2008,03,03,04,39,0.00
2008,03,03,04,40,0.00
2008,03,03,04,41,0.80
2008,03,03,04,42,0.90
2008,03,03,04,43,0.00
2008,03,03,04,44,0.30
2008,03,03,04,45,0.50
2008,03,03,04,46,0.00
2008,03,03,04,47,0.20
2008,03,03,04,48,0.00
2008,03,03,04,49,0.10
2008,03,03,04,50,0.50
2008,03,03,04,51,0.70
2008,03,03,04,52,0.00
2008,03,03,04,53,0.50
2008,03,03,04,54,2.60
2008,03,03,04,55,0.10
2008,03,03,04,56,0.00
2008,03,03,04,57,0.00
2008,03,03,04,58,0.00
2008,03,03,04,59,0.00
2008,03,03,05,00,0.00
2008,03,03,05,01,0.00
2008,03,03,05,02,0.00
2008,03,03,05,03,0.00
2008,03,03,05,04,0.00
2008,03,03,05,05,0.00
2008,03,03,05,06,0.00
2008,03,03,05,07,0.40
2008,03,03,05,08,0.00
2008,03,03,05,09,0.20
2008,03,03,05,10,0.20
2008,03,03,05,11,0.00
2008,03,03,05,12,0.00
2008,03,03,05,13,0.40
2008,03,03,05,14,0.50
2008,03,03,05,15,0.10
2008,03,03,05,16,1.20
2008,03,03,05,17,0.20
2008,03,03,05,18,0.70
2008,03,03,05,19,0.50
2008,03,03,05,20,0.50
2008,03,03,05,21,0.00
2008,03,03,05,22,0.00
2008,03,03,05,23,0.00
2008,03,03,05,24,0.30
2008,03,03,05,25,0.10
2008,03,03,05,26,0.40
2008,03,03,05,27,1.00
2008,03,03,05,28,0.60
2008,03,03,05,29,0.00
2008,03,03,05,30,0.10
2008,03,03,05,31,0.40
2008,03,03,05,32,0.10
2008,03,03,05,33,0.00
2008,03,03,05,34,0.00
2008,03,03,05,35,0.00
2008,03,03,05,36,0.00
2008,03,03,05,37,0.00
2008,03,03,05,38,0.00
2008,03,03,05,39,0.00
2008,03,03,05,40,0.00
2008,03,03,05,41,0.00
2008,03,03,05,42,0.00
2008,03,03,05,43,0.00
2008,03,03,05,44,0.00
2008,03,03,05,45,0.00
2008,03,03,05,46,0.00
2008,03,03,05,47,0.00
2008,03,03,05,48,0.00
2008,03,03,05,49,0.00
2008,03,03,05,50,0.00
2008,03,03,05,51,0.00
2008,03,03,05,52,0.00
2008,03,03,05,53,0.00
2008,03,03,05,54,0.00
2008,03,03,05,55,0.00
2008,03,03,05,56,0.00
2008,03,03,05,57,0.10
2008,03,03,05,58,0.10
2008,03,03,05,59,0.00
2008,03,03,06,00,0.00
2008,03,03,06,01,0.00
2008,03,03,06,02,0.00
2008,03,03,06,03,0.00
2008,03,03,06,04,0.00
2008,03,03,06,05,0.00
2008,03,03,06,06,0.00
2008,03,03,06,07,0.00
2008,03,03,06,08,0.00
2008,03,03,06,09,0.00
2008,03,03,06,10,0.00
2008,03,03,06,11,0.00
2008,03,03,06,12,0.00
2008,03,03,06,13,0.00
2008,03,03,06,14,0.00
2008,03,03,06,15,0.00
2008,03,03,06,16,0.00
2008,03,03,06,17,0.00
2008,03,03,06,18,0.00
2008,03,03,06,19,0.00
2008,03,03,06,20,0.00
2008,03,03,06,21,0.00
2008,03,03,06,22,0.00
2008,03,03,06,23,0.00
2008,03,03,06,24,0.00
2008,03,03,06,25,0.00
2008,03,03,06,26,0.00
2008,03,03,06,27,0.00
2008,03,03,06,28,0.00
2008,03,03,06,29,0.00
2008,03,03,06,30,0.00
2008,03,03,06,31,0.00
2008,03,03,06,32,0.00
2008,03,03,06,33,0.10
2008,03,03,06,34,0.60
2008,03,03,06,35,0.30
2008,03,03,06,36,1.70
2008,03,03,06,37,0.30
2008,03,03,06,38,0.10
2008,03,03,06,39,0.20
2008,03,03,06,40,0.00
2008,03,03,06,41,0.00
2008,03,03,06,42,0.00
2008,03,03,06,43,0.00
2008,03,03,06,44,0.10
2008,03,03,06,45,0.00
2008,03,03,06,46,0.00
2008,03,03,06,47,0.00
2008,03,03,06,48,0.00
2008,03,03,06,49,0.00
2008,03,03,06,50,0.00
2008,03,03,06,51,0.10
2008,03,03,06,52,0.30
2008,03,03,06,53,0.00
2008,03,03,06,54,0.00
2008,03,03,06,55,0.20
2008,03,03,06,56,0.00
2008,03,03,06,57,0.00
2008,03,03,06,58,0.10
2008,03,03,06,59,0.00
2008,03,03,07,00,0.00
2008,03,03,07,01,0.00
2008,03,03,07,02,0.00
2008,03,03,07,03,0.00
2008,03,03,07,04,0.00
2008,03,03,07,05,0.00
2008,03,03,07,06,0.00
2008,03,03,07,07,0.00
2008,03,03,07,08,0.00
2008,03,03,07,09,0.00
2008,03,03,07,10,0.00
2008,03,03,07,11,0.60
2008,03,03,07,12,0.00
2008,03,03,07,13,0.10
2008,03,03,07,14,0.00
2008,03,03,07,15,0.00
2008,03,03,07,16,0.00
2008,03,03,07,17,0.00
2008,03,03,07,18,0.00
2008,03,03,07,19,0.00
2008,03,03,07,20,0.10
2008,03,03,07,21,0.00
2008,03,03,07,22,0.00
2008,03,03,07,23,0.30
2008,03,03,07,24,0.70
2008,03,03,07,25,0.00
2008,03,03,07,26,0.00
2008,03,03,07,27,0.00
2008,03,03,07,28,0.10
2008,03,03,07,29,0.00
2008,03,03,07,30,0.00
2008,03,03,07,31,0.00
2008,03,03,07,32,0.00
2008,03,03,07,33,0.00
2008,03,03,07,34,0.00
2008,03,03,07,35,0.00
2008,03,03,07,36,0.00
2008,03,03,07,37,0.00
2008,03,03,07,38,0.00
2008,03,03,07,39,0.20
2008,03,03,07,40,0.30
2008,03,03,07,41,0.00
2008,03,03,07,42,0.00
2008,03,03,07,43,0.00
2008,03,03,07,44,0.00
2008,03,03,07,45,0.00
2008,03,03,07,46,0.00
2008,03,03,07,47,0.00
2008,03,03,07,48,0.00
2008,03,03,07,49,0.30
2008,03,03,07,50,0.20
2008,03,03,07,51,0.00
2008,03,03,07,52,0.00
2008,03,03,07,53,0.00
2008,03,03,07,54,0.70
2008,03,03,07,55,0.70
2008,03,03,07,56,0.70
2008,03,03,07,57,0.00
2008,03,03,07,58,0.80
2008,03,03,07,59,0.00
2008,03,03,08,00,0.00
2008,03,03,08,01,0.00
2008,03,03,08,02,0.00
2008,03,03,08,03,1.10
2008,03,03,08,04,0.00
2008,03,03,08,05,1.20
2008,03,03,08,06,1.30
2008,03,03,08,07,0.00
2008,03,03,08,08,0.00
2008,03,03,08,09,0.00
2008,03,03,08,10,0.10
2008,03,03,08,11,0.00
2008,03,03,08,12,0.00
2008,03,03,08,13,0.00
2008,03,03,08,14,0.00
2008,03,03,08,15,0.10
2008,03,03,08,16,0.00
2008,03,03,08,17,0.00
2008,03,03,08,18,0.20
2008,03,03,08,19,0.90
2008,03,03,08,20,0.10
2008,03,03,08,21,0.00
2008,03,03,08,22,1.30
2008,03,03,08,23,0.60
2008,03,03,08,24,3.90
2008,03,03,08,25,4.30
2008,03,03,08,26,0.30
2008,03,03,08,27,0.70
2008,03,03,08,28,0.10
2008,03,03,08,29,2.10
2008,03,03,08,30,0.30
2008,03,03,08,31,1.20
2008,03,03,08,32,0.90
2008,03,03,08,33,0.10
2008,03,03,08,34,0.00
2008,03,03,08,35,0.30
2008,03,03,08,36,1.80
2008,03,03,08,37,1.30
2008,03,03,08,38,0.60
2008,03,03,08,39,0.10
2008,03,03,08,40,0.00
2008,03,03,08,41,0.50
2008,03,03,08,42,0.00
2008,03,03,08,43,1.90
2008,03,03,08,44,2.10
2008,03,03,08,45,0.90
2008,03,03,08,46,1.10
2008,03,03,08,47,1.10
2008,03,03,08,48,0.60
2008,03,03,08,49,1.40
2008,03,03,08,50,0.10
2008,03,03,08,51,0.60
2008,03,03,08,52,0.10
2008,03,03,08,53,0.00
2008,03,03,08,54,0.50
2008,03,03,08,55,0.20
2008,03,03,08,56,0.60
2008,03,03,08,57,1.40
2008,03,03,08,58,1.50
2008,03,03,08,59,0.90
2008,03,03,09,00,1.10
2008,03,03,09,01,0.30
2008,03,03,09,02,0.30
2008,03,03,09,03,0.90
2008,03,03,09,04,0.70
2008,03,03,09,05,1.10
2008,03,03,09,06,0.40
2008,03,03,09,07,1.00
2008,03,03,09,08,0.70
2008,03,03,09,09,1.50
2008,03,03,09,10,2.70
2008,03,03,09,11,1.20
2008,03,03,09,12,0.20
2008,03,03,09,13,0.20
2008,03,03,09,14,1.00
2008,03,03,09,15,0.00
2008,03,03,09,16,1.20
2008,03,03,09,17,0.30
2008,03,03,09,18,0.50
2008,03,03,09,19,0.50
2008,03,03,09,20,0.20
2008,03,03,09,21,0.00
2008,03,03,09,22,0.00
2008,03,03,09,23,0.20
2008,03,03,09,24,0.00
2008,03,03,09,25,0.20
2008,03,03,09,26,0.00
2008,03,03,09,27,2.00
2008,03,03,09,28,0.10
2008,03,03,09,29,0.00
2008,03,03,09,30,2.60
2008,03,03,09,31,1.20
2008,03,03,09,32,0.00
2008,03,03,09,33,1.10
2008,03,03,09,34,1.20
2008,03,03,09,35,0.80
2008,03,03,09,36,0.20
2008,03,03,09,37,1.20
2008,03,03,09,38,5.10
2008,03,03,09,39,2.20
2008,03,03,09,40,3.90
2008,03,03,09,41,3.00
2008,03,03,09,42,0.60
2008,03,03,09,43,5.30
2008,03,03,09,44,2.50
2008,03,03,09,45,1.70
2008,03,03,09,46,4.10
2008,03,03,09,47,2.00
2008,03,03,09,48,2.10
2008,03,03,09,49,1.50
2008,03,03,09,50,3.00
2008,03,03,09,51,1.20
2008,03,03,09,52,4.70
2008,03,03,09,53,3.40
2008,03,03,09,54,1.00
2008,03,03,09,55,3.50
2008,03,03,09,56,5.50
2008,03,03,09,57,3.60
2008,03,03,09,58,1.40
2008,03,03,09,59,3.10
2008,03,03,10,00,3.20
2008,03,03,10,01,3.20
2008,03,03,10,02,4.30
2008,03,03,10,03,3.60
2008,03,03,10,04,3.80
2008,03,03,10,05,2.70
2008,03,03,10,06,2.80
2008,03,03,10,07,4.10
2008,03,03,10,08,5.30
2008,03,03,10,09,3.70
2008,03,03,10,10,3.90
2008,03,03,10,11,4.60
2008,03,03,10,12,3.00
2008,03,03,10,13,2.60
2008,03,03,10,14,2.00
2008,03,03,10,15,5.10
2008,03,03,10,16,2.60
2008,03,03,10,17,2.30
2008,03,03,10,18,0.80
2008,03,03,10,19,1.80
2008,03,03,10,20,0.90
2008,03,03,10,21,2.50
2008,03,03,10,22,4.60
2008,03,03,10,23,5.00
2008,03,03,10,24,6.30
2008,03,03,10,25,2.40
2008,03,03,10,26,3.50
2008,03,03,10,27,1.50
2008,03,03,10,28,0.70
2008,03,03,10,29,0.40
2008,03,03,10,30,1.00
2008,03,03,10,31,1.10
2008,03,03,10,32,1.90
2008,03,03,10,33,0.50
2008,03,03,10,34,1.20
2008,03,03,10,35,1.70
2008,03,03,10,36,3.30
2008,03,03,10,37,1.50
2008,03,03,10,38,1.00
2008,03,03,10,39,4.90
2008,03,03,10,40,7.50
2008,03,03,10,41,6.10
2008,03,03,10,42,3.60
2008,03,03,10,43,3.30
2008,03,03,10,44,1.80
2008,03,03,10,45,1.60
2008,03,03,10,46,0.10
2008,03,03,10,47,0.90
2008,03,03,10,48,1.30
2008,03,03,10,49,0.70
2008,03,03,10,50,1.00
2008,03,03,10,51,5.20
2008,03,03,10,52,3.20
2008,03,03,10,53,5.00
2008,03,03,10,54,7.90
2008,03,03,10,55,1.40
2008,03,03,10,56,1.60
2008,03,03,10,57,3.60
2008,03,03,10,58,2.00
2008,03,03,10,59,6.60
2008,03,03,11,00,6.60
2008,03,03,11,01,4.40
2008,03,03,11,02,3.50
2008,03,03,11,03,2.80
2008,03,03,11,04,1.30
2008,03,03,11,05,1.80
2008,03,03,11,06,1.30
2008,03,03,11,07,0.80
2008,03,03,11,08,1.70
2008,03,03,11,09,5.90
2008,03,03,11,10,7.00
2008,03,03,11,11,1.10
2008,03,03,11,12,1.90
2008,03,03,11,13,4.20
2008,03,03,11,14,1.90
2008,03,03,11,15,2.00
2008,03,03,11,16,0.00
2008,03,03,11,17,0.00
2008,03,03,11,18,1.00
2008,03,03,11,19,2.00
2008,03,03,11,20,1.60
2008,03,03,11,21,1.20
2008,03,03,11,22,1.40
2008,03,03,11,23,0.00
2008,03,03,11,24,0.30
2008,03,03,11,25,3.10
2008,03,03,11,26,0.90
2008,03,03,11,27,2.70
2008,03,03,11,28,2.10
2008,03,03,11,29,1.20
2008,03,03,11,30,0.00
2008,03,03,11,31,0.30
2008,03,03,11,32,1.80
2008,03,03,11,33,0.40
2008,03,03,11,34,0.00
2008,03,03,11,35,0.20
2008,03,03,11,36,0.00
2008,03,03,11,37,1.40
2008,03,03,11,38,0.90
2008,03,03,11,39,0.20
2008,03,03,11,40,1.40
2008,03,03,11,41,1.30
2008,03,03,11,42,2.40
2008,03,03,11,43,1.60
2008,03,03,11,44,2.10
2008,03,03,11,45,2.50
2008,03,03,11,46,3.00
2008,03,03,11,47,0.50
2008,03,03,11,48,0.30
2008,03,03,11,49,0.10
2008,03,03,11,50,0.00
2008,03,03,11,51,0.00
2008,03,03,11,52,0.20
2008,03,03,11,53,2.80
2008,03,03,11,54,0.70
2008,03,03,11,55,2.10
2008,03,03,11,56,1.40
2008,03,03,11,57,2.10
2008,03,03,11,58,1.30
2008,03,03,11,59,0.00
2008,03,03,12,00,0.00
2008,03,03,12,01,0.00
2008,03,03,12,02,0.10
2008,03,03,12,03,2.20
2008,03,03,12,04,0.30
2008,03,03,12,05,0.10
2008,03,03,12,06,1.30
2008,03,03,12,07,2.70
2008,03,03,12,08,0.50
2008,03,03,12,09,1.10
2008,03,03,12,10,0.20
2008,03,03,12,11,0.50
2008,03,03,12,12,0.00
2008,03,03,12,13,0.10
2008,03,03,12,14,0.80
2008,03,03,12,15,0.00
2008,03,03,12,16,1.20
2008,03,03,12,17,6.50
2008,03,03,12,18,2.90
2008,03,03,12,19,0.30
2008,03,03,12,20,4.50
2008,03,03,12,21,1.20
2008,03,03,12,22,0.00
2008,03,03,12,23,3.90
2008,03,03,12,24,3.60
2008,03,03,12,25,5.70
2008,03,03,12,26,2.40
2008,03,03,12,27,3.20
2008,03,03,12,28,0.00
2008,03,03,12,29,2.20
2008,03,03,12,30,2.10
2008,03,03,12,31,0.00
2008,03,03,12,32,0.90
2008,03,03,12,33,1.60
2008,03,03,12,34,2.30
2008,03,03,12,35,2.00
2008,03,03,12,36,7.30
2008,03,03,12,37,3.90
2008,03,03,12,38,0.70
2008,03,03,12,39,1.90
2008,03,03,12,40,1.30
2008,03,03,12,41,1.20
2008,03,03,12,42,7.70
2008,03,03,12,43,3.80
2008,03,03,12,44,0.10
2008,03,03,12,45,4.70
2008,03,03,12,46,2.60
2008,03,03,12,47,6.50
2008,03,03,12,48,3.60
2008,03,03,12,49,1.00
2008,03,03,12,50,5.00
2008,03,03,12,51,5.90
2008,03,03,12,52,3.20
2008,03,03,12,53,2.40
2008,03,03,12,54,2.30
2008,03,03,12,55,3.80
2008,03,03,12,56,3.30
2008,03,03,12,57,5.60
2008,03,03,12,58,4.90
2008,03,03,12,59,3.90
2008,03,03,13,00,5.20
2008,03,03,13,01,7.20
2008,03,03,13,02,6.90
2008,03,03,13,03,2.10
2008,03,03,13,04,1.70
2008,03,03,13,05,1.70
2008,03,03,13,06,5.50
2008,03,03,13,07,3.00
2008,03,03,13,08,2.70
2008,03,03,13,09,4.80
2008,03,03,13,10,2.50
2008,03,03,13,11,3.30
2008,03,03,13,12,4.00
2008,03,03,13,13,3.80
2008,03,03,13,14,1.10
2008,03,03,13,15,3.40
2008,03,03,13,16,6.10
2008,03,03,13,17,7.30
2008,03,03,13,18,7.20
2008,03,03,13,19,8.00
2008,03,03,13,20,5.10
2008,03,03,13,21,4.10
2008,03,03,13,22,5.50
2008,03,03,13,23,1.30
2008,03,03,13,24,10.20
2008,03,03,13,25,9.40
2008,03,03,13,26,10.00
2008,03,03,13,27,10.90
2008,03,03,13,28,12.30
2008,03,03,13,29,11.20
2008,03,03,13,30,3.20
2008,03,03,13,31,6.30
2008,03,03,13,32,8.30
2008,03,03,13,33,5.80
2008,03,03,13,34,4.80
2008,03,03,13,35,2.90
2008,03,03,13,36,5.20
2008,03,03,13,37,14.50
2008,03,03,13,38,10.40
2008,03,03,13,39,17.80
2008,03,03,13,40,16.90
2008,03,03,13,41,6.70
2008,03,03,13,42,10.80
2008,03,03,13,43,10.00
2008,03,03,13,44,8.90
2008,03,03,13,45,8.50
2008,03,03,13,46,22.10
2008,03,03,13,47,11.00
2008,03,03,13,48,6.80
2008,03,03,13,49,7.30
2008,03,03,13,50,4.70
2008,03,03,13,51,11.70
2008,03,03,13,52,11.30
2008,03,03,13,53,8.20
2008,03,03,13,54,6.40
2008,03,03,13,55,8.00
2008,03,03,13,56,16.30
2008,03,03,13,57,7.50
2008,03,03,13,58,15.60
2008,03,03,13,59,18.50
2008,03,03,14,00,17.20
2008,03,03,14,01,27.20
2008,03,03,14,02,16.20
2008,03,03,14,03,14.50
2008,03,03,14,04,17.40
2008,03,03,14,05,18.80
2008,03,03,14,06,19.40
2008,03,03,14,07,16.00
2008,03,03,14,08,18.50
2008,03,03,14,09,20.90
2008,03,03,14,10,18.60
2008,03,03,14,11,11.20
2008,03,03,14,12,15.90
2008,03,03,14,13,11.30
2008,03,03,14,14,12.20
2008,03,03,14,15,16.10
2008,03,03,14,16,17.80
2008,03,03,14,17,18.50
2008,03,03,14,18,10.80
2008,03,03,14,19,13.00
2008,03,03,14,20,11.40
2008,03,03,14,21,16.90
2008,03,03,14,22,13.70
2008,03,03,14,23,13.00
2008,03,03,14,24,12.60
2008,03,03,14,25,10.90
2008,03,03,14,26,12.30
2008,03,03,14,27,13.00
2008,03,03,14,28,14.60
2008,03,03,14,29,16.10
2008,03,03,14,30,13.10
2008,03,03,14,31,14.50
2008,03,03,14,32,16.40
2008,03,03,14,33,10.20
2008,03,03,14,34,10.50
2008,03,03,14,35,20.20
2008,03,03,14,36,18.20
2008,03,03,14,37,16.90
2008,03,03,14,38,19.80
2008,03,03,14,39,19.90
2008,03,03,14,40,20.50
2008,03,03,14,41,13.90
2008,03,03,14,42,15.20
2008,03,03,14,43,18.00
2008,03,03,14,44,21.50
2008,03,03,14,45,15.30
2008,03,03,14,46,15.30
2008,03,03,14,47,10.50
2008,03,03,14,48,14.60
2008,03,03,14,49,9.70
2008,03,03,14,50,20.70
2008,03,03,14,51,17.10
2008,03,03,14,52,16.80
2008,03,03,14,53,25.30
2008,03,03,14,54,21.80
2008,03,03,14,55,16.70
2008,03,03,14,56,12.70
2008,03,03,14,57,19.00
2008,03,03,14,58,22.20
2008,03,03,14,59,17.40
2008,03,03,15,00,16.50
2008,03,03,15,01,13.40
2008,03,03,15,02,14.60
2008,03,03,15,03,6.40
2008,03,03,15,04,18.20
2008,03,03,15,05,15.00
2008,03,03,15,06,17.60
2008,03,03,15,07,19.80
2008,03,03,15,08,10.40
2008,03,03,15,09,10.20
2008,03,03,15,10,21.30
2008,03,03,15,11,13.50
2008,03,03,15,12,12.10
2008,03,03,15,13,8.70
2008,03,03,15,14,24.30
2008,03,03,15,15,13.70
2008,03,03,15,16,15.00
2008,03,03,15,17,13.20
2008,03,03,15,18,10.60
2008,03,03,15,19,20.00
2008,03,03,15,20,18.10
2008,03,03,15,21,14.40
2008,03,03,15,22,17.00
2008,03,03,15,23,14.10
2008,03,03,15,24,13.40
2008,03,03,15,25,8.40
2008,03,03,15,26,23.10
2008,03,03,15,27,22.10
2008,03,03,15,28,18.20
2008,03,03,15,29,14.00
2008,03,03,15,30,16.60
2008,03,03,15,31,15.50
2008,03,03,15,32,22.10
2008,03,03,15,33,16.50
2008,03,03,15,34,16.10
2008,03,03,15,35,18.40
2008,03,03,15,36,16.90
2008,03,03,15,37,7.30
2008,03,03,15,38,12.30
2008,03,03,15,39,17.10
2008,03,03,15,40,19.40
2008,03,03,15,41,11.90
2008,03,03,15,42,11.30
2008,03,03,15,43,9.00
2008,03,03,15,44,12.30
2008,03,03,15,45,13.20
2008,03,03,15,46,17.20
2008,03,03,15,47,17.80
2008,03,03,15,48,7.20
2008,03,03,15,49,6.40
2008,03,03,15,50,9.30
2008,03,03,15,51,19.10
2008,03,03,15,52,16.30
2008,03,03,15,53,19.20
2008,03,03,15,54,22.30
2008,03,03,15,55,10.70
2008,03,03,15,56,17.40
2008,03,03,15,57,13.30
2008,03,03,15,58,10.20
2008,03,03,15,59,19.60
2008,03,03,16,00,13.80
2008,03,03,16,01,11.40
2008,03,03,16,02,17.90
2008,03,03,16,03,19.30
2008,03,03,16,04,14.10
2008,03,03,16,05,14.00
2008,03,03,16,06,11.30
2008,03,03,16,07,11.50
2008,03,03,16,08,24.00
2008,03,03,16,09,9.90
2008,03,03,16,10,7.30
2008,03,03,16,11,8.90
2008,03,03,16,12,19.20
2008,03,03,16,13,11.50
2008,03,03,16,14,7.40
2008,03,03,16,15,11.40
2008,03,03,16,16,17.30
2008,03,03,16,17,34.00
2008,03,03,16,18,28.20
2008,03,03,16,19,12.10
2008,03,03,16,20,7.50
2008,03,03,16,21,8.40
2008,03,03,16,22,4.50
2008,03,03,16,23,11.80
2008,03,03,16,24,14.60
2008,03,03,16,25,12.10
2008,03,03,16,26,4.60
2008,03,03,16,27,7.70
2008,03,03,16,28,18.80
2008,03,03,16,29,18.00
2008,03,03,16,30,17.60
2008,03,03,16,31,16.60
2008,03,03,16,32,10.90
2008,03,03,16,33,11.60
2008,03,03,16,34,4.80
2008,03,03,16,35,5.20
2008,03,03,16,36,9.80
2008,03,03,16,37,14.20
2008,03,03,16,38,16.40
2008,03,03,16,39,6.50
2008,03,03,16,40,13.10
2008,03,03,16,41,10.60
2008,03,03,16,42,19.40
2008,03,03,16,43,15.10
2008,03,03,16,44,18.30
2008,03,03,16,45,16.20
2008,03,03,16,46,23.40
2008,03,03,16,47,14.80
2008,03,03,16,48,6.40
2008,03,03,16,49,4.40
2008,03,03,16,50,8.10
2008,03,03,16,51,21.00
2008,03,03,16,52,13.80
2008,03,03,16,53,9.50
2008,03,03,16,54,9.90
2008,03,03,16,55,13.50
2008,03,03,16,56,10.20
2008,03,03,16,57,18.50
2008,03,03,16,58,13.50
2008,03,03,16,59,8.00
2008,03,03,17,00,14.70
2008,03,03,17,01,8.60
2008,03,03,17,02,8.00
2008,03,03,17,03,7.10
2008,03,03,17,04,3.90
2008,03,03,17,05,11.30
2008,03,03,17,06,10.90
2008,03,03,17,07,20.20
2008,03,03,17,08,11.00
2008,03,03,17,09,11.90
2008,03,03,17,10,9.70
2008,03,03,17,11,9.60
2008,03,03,17,12,8.00
2008,03,03,17,13,8.60
2008,03,03,17,14,9.00
2008,03,03,17,15,6.70
2008,03,03,17,16,10.90
2008,03,03,17,17,12.10
2008,03,03,17,18,19.00
2008,03,03,17,19,9.10
2008,03,03,17,20,5.50
2008,03,03,17,21,7.50
2008,03,03,17,22,6.50
2008,03,03,17,23,4.10
2008,03,03,17,24,7.70
2008,03,03,17,25,5.00
2008,03,03,17,26,10.90
2008,03,03,17,27,4.60
2008,03,03,17,28,6.70
2008,03,03,17,29,5.10
2008,03,03,17,30,8.00
2008,03,03,17,31,7.60
2008,03,03,17,32,19.70
2008,03,03,17,33,8.00
2008,03,03,17,34,6.80
2008,03,03,17,35,8.90
2008,03,03,17,36,5.50
2008,03,03,17,37,5.00
2008,03,03,17,38,6.60
2008,03,03,17,39,5.80
2008,03,03,17,40,14.70
2008,03,03,17,41,7.20
2008,03,03,17,42,17.10
2008,03,03,17,43,6.70
2008,03,03,17,44,7.60
2008,03,03,17,45,9.70
2008,03,03,17,46,7.30
2008,03,03,17,47,4.10
2008,03,03,17,48,7.10
2008,03,03,17,49,5.70
2008,03,03,17,50,11.80
2008,03,03,17,51,5.40
2008,03,03,17,52,3.20
2008,03,03,17,53,3.70
2008,03,03,17,54,4.20
2008,03,03,17,55,13.60
2008,03,03,17,56,3.60
2008,03,03,17,57,12.30
2008,03,03,17,58,5.80